Sylvania, OH

12:24 AM EST on January 23, 2017 (GMT -0500)
Lambertville

Weather History for KDUH - September, 2013

Change the Weather History Date:

Tuesday, September 24, 2013

  Actual Average (KTOL) Record (KTOL)
Temperature  
Mean Temperature 52 °F -  
Max Temperature 64 °F 67 °F 92 °F (1891)
Min Temperature 39 °F 44 °F 30 °F (1976)
Degree Days  
Heating Degree Days 14    
Growing Degree Days 2 (Base 50)    
Moisture  
Dew Point 44 °F    
Average Humidity 76    
Maximum Humidity 94    
Minimum Humidity 49    
Precipitation  
Precipitation 0.00 in - - ()
Sea Level Pressure  
Sea Level Pressure 30.09 in    
Wind  
Wind Speed 1 mph (East)    
Max Wind Speed 10 mph    
Max Gust Speed 16 mph    
Visibility 7 miles    
Events Fog    
Averages and records for this station are not official NWS values.
T = Trace of Precipitation, MM = Missing Value Source: NWS Daily Summary

Daily Weather History Graph

Daily Weather History Graph

Search for Another Location

Airport or City:

Trip Planner

Search our weather history database for the weather conditions in past years. The results will help you decide how hot, cold, wet, or windy it might be!

Date:

Astronomy

Sep. 24, 2013 Rise Set
Actual Time 7:24 AM EDT 7:27 PM EDT
Civil Twilight 6:56 AM EDT 7:55 PM EDT
Nautical Twilight 6:24 AM EDT 8:27 PM EDT
Astronomical Twilight 5:51 AM EDT 9:00 PM EDT
Moon 10:40 PM EDT (9/24) 12:42 PM EDT (9/24)
Length of Visible Light 12h 59m
Length of Day
12h 03m
Waning Gibbous, 73% of the Moon is Illuminated
Sep 24
Waning Gibbous
Sep 26
Last Quarter
Oct 4
New
Oct 11
First Quarter
Oct 18
Full

Hourly Weather History & Observations

Time (EDT) Temp. Dew Point Humidity Pressure Visibility Wind Dir Wind Speed Gust Speed Precip Events Conditions
12:15 AM 44.6 °F 42.8 °F 93% 30.14 in - Calm Calm - N/A   Unknown
12:35 AM 42.8 °F 41.0 °F 93% 30.14 in - Calm Calm - N/A   Unknown
12:55 AM 42.8 °F 41.0 °F 93% 30.14 in 10.0 mi Calm Calm - N/A   Clear
1:15 AM 42.8 °F 41.0 °F 93% 30.13 in 1.0 mi Calm Calm - N/A   Mist
1:35 AM 42.8 °F 41.0 °F 93% 30.13 in 0.5 mi Calm Calm - N/A Fog Fog
1:55 AM 42.8 °F 41.0 °F 93% 30.13 in 0.8 mi Calm Calm - N/A   Mist
2:15 AM 42.8 °F 41.0 °F 93% 30.14 in 7.0 mi Calm Calm - N/A   Clear
2:35 AM 42.8 °F 41.0 °F 93% 30.14 in 5.0 mi Calm Calm - N/A   Clear
2:55 AM 41.0 °F 39.2 °F 93% 30.14 in 7.0 mi Calm Calm - N/A   Scattered Clouds
3:15 AM 41.0 °F 39.2 °F 93% 30.14 in 7.0 mi Calm Calm - N/A   Scattered Clouds
3:35 AM 41.0 °F 37.4 °F 87% 30.14 in 4.0 mi Calm Calm - N/A   Scattered Clouds
3:55 AM 41.0 °F 37.4 °F 87% 30.13 in 4.0 mi Calm Calm - N/A   Scattered Clouds
4:15 AM 41.0 °F 39.2 °F 93% 30.13 in 2.0 mi Calm Calm - N/A   Scattered Clouds
4:35 AM 41.0 °F 37.4 °F 87% 30.13 in 7.0 mi Calm Calm - N/A   Clear
4:55 AM 41.0 °F 37.4 °F 87% 30.13 in 7.0 mi Calm Calm - N/A   Clear
5:15 AM 39.2 °F 37.4 °F 93% 30.13 in 5.0 mi Calm Calm - N/A   Clear
5:35 AM 39.2 °F 37.4 °F 93% 30.13 in 2.5 mi Calm Calm - N/A   Clear
5:55 AM 41.0 °F 37.4 °F 87% 30.13 in 5.0 mi Calm Calm - N/A   Clear
6:15 AM 39.2 °F 37.4 °F 93% 30.14 in 5.0 mi Calm Calm - N/A   Clear
6:35 AM 41.0 °F 37.4 °F 87% 30.14 in 0.2 mi Calm Calm - N/A Fog Fog
6:55 AM 39.2 °F 37.4 °F 93% 30.15 in 0.2 mi Calm Calm - N/A Fog Fog
7:15 AM 41.0 °F 37.4 °F 87% 30.15 in 5.0 mi Calm Calm - N/A   Mostly Cloudy
7:35 AM 39.2 °F 37.4 °F 93% 30.15 in 3.0 mi Calm Calm - N/A   Mostly Cloudy
7:55 AM 41.0 °F 37.4 °F 87% 30.15 in 0.2 mi Calm Calm - N/A Fog Fog
8:15 AM 42.8 °F 41.0 °F 93% 30.15 in 4.0 mi Calm Calm - N/A   Scattered Clouds
8:35 AM 44.6 °F 42.8 °F 93% 30.15 in 3.0 mi Calm Calm - N/A   Clear
8:55 AM 46.4 °F 44.6 °F 93% 30.15 in 5.0 mi Calm Calm - N/A   Clear
9:15 AM 50.0 °F 48.2 °F 94% 30.14 in 7.0 mi Calm Calm - N/A   Clear
9:35 AM 53.6 °F 48.2 °F 82% 30.14 in 10.0 mi Calm Calm - N/A   Clear
9:55 AM 55.4 °F 46.4 °F 72% 30.15 in 10.0 mi Calm Calm - N/A   Clear
10:15 AM 57.2 °F 46.4 °F 67% 30.14 in 10.0 mi Calm Calm - N/A   Clear
10:35 AM 57.2 °F 44.6 °F 63% 30.14 in 10.0 mi Calm Calm - N/A   Clear
10:55 AM 59.0 °F 44.6 °F 59% 30.14 in 10.0 mi Calm Calm - N/A   Clear
11:15 AM 60.8 °F 44.6 °F 55% 30.13 in 10.0 mi SE 5.8 mph - N/A   Clear
11:35 AM 60.8 °F 46.4 °F 59% 30.14 in 10.0 mi SSE 3.5 mph - N/A   Clear
11:55 AM 60.8 °F 44.6 °F 55% 30.13 in 10.0 mi ESE 4.6 mph - N/A   Clear
12:15 PM 62.6 °F 46.4 °F 55% 30.12 in 10.0 mi ENE 4.6 mph - N/A   Scattered Clouds
12:35 PM 62.6 °F 46.4 °F 55% 30.11 in 10.0 mi ENE 9.2 mph - N/A   Scattered Clouds
12:55 PM 62.6 °F 46.4 °F 55% 30.10 in 10.0 mi ESE 9.2 mph - N/A   Clear
1:15 PM 64.4 °F 46.4 °F 52% 30.10 in 10.0 mi ESE 8.1 mph - N/A   Clear
1:35 PM 64.4 °F 46.4 °F 52% 30.09 in 10.0 mi ENE 10.4 mph - N/A   Clear
1:55 PM 64.4 °F 46.4 °F 52% 30.08 in 10.0 mi ENE 6.9 mph - N/A   Clear
2:15 PM 64.4 °F 46.4 °F 52% 30.08 in 10.0 mi East 6.9 mph - N/A   Clear
2:35 PM 64.4 °F 46.4 °F 52% 30.07 in 10.0 mi East 8.1 mph - N/A   Clear
2:55 PM 64.4 °F 44.6 °F 49% 30.06 in 10.0 mi East 8.1 mph - N/A   Clear
3:15 PM 64.4 °F 44.6 °F 49% 30.06 in 10.0 mi East 8.1 mph - N/A   Clear
3:35 PM 64.4 °F 44.6 °F 49% 30.05 in 10.0 mi ENE 9.2 mph 16.1 mph N/A   Clear
3:55 PM 64.4 °F 44.6 °F 49% 30.04 in 10.0 mi East 9.2 mph 16.1 mph N/A   Clear
4:15 PM 64.4 °F 46.4 °F 52% 30.04 in 10.0 mi East 6.9 mph - N/A   Clear
4:35 PM 64.4 °F 48.2 °F 56% 30.03 in 10.0 mi East 5.8 mph - N/A   Clear
4:55 PM 62.6 °F 48.2 °F 59% 30.03 in 10.0 mi East 6.9 mph - N/A   Clear
5:15 PM 62.6 °F 48.2 °F 59% 30.03 in 10.0 mi ESE 8.1 mph - N/A   Clear
5:35 PM 62.6 °F 48.2 °F 59% 30.03 in 10.0 mi East 6.9 mph - N/A   Clear
5:55 PM 62.6 °F 46.4 °F 55% 30.02 in 10.0 mi East 5.8 mph - N/A   Clear
6:15 PM 62.6 °F 46.4 °F 55% 30.02 in 10.0 mi East 8.1 mph - N/A   Clear
6:35 PM 60.8 °F 48.2 °F 63% 30.02 in 10.0 mi East 3.5 mph - N/A   Clear
6:55 PM 60.8 °F 48.2 °F 63% 30.02 in 10.0 mi East 3.5 mph - N/A   Clear
7:15 PM 59.0 °F 48.2 °F 67% 30.01 in 10.0 mi Calm Calm - N/A   Clear
7:35 PM 57.2 °F 48.2 °F 72% 30.01 in 10.0 mi Calm Calm - N/A   Clear
7:55 PM 53.6 °F 48.2 °F 82% 30.01 in 3.0 mi Calm Calm - N/A   Haze
8:15 PM 51.8 °F 46.4 °F 82% 30.01 in 10.0 mi Calm Calm - N/A   Clear
8:35 PM 51.8 °F 48.2 °F 88% 30.01 in 10.0 mi Calm Calm - N/A   Clear
8:55 PM 50.0 °F 46.4 °F 87% 30.01 in 10.0 mi Calm Calm - N/A   Clear
9:15 PM 50.0 °F 46.4 °F 87% 30.01 in 10.0 mi Calm Calm - N/A   Clear
9:35 PM 50.0 °F 46.4 °F 87% 30.01 in 5.0 mi Calm Calm - N/A   Clear
9:55 PM 46.4 °F 44.6 °F 93% 30.00 in 7.0 mi Calm Calm - N/A   Clear
10:15 PM 46.4 °F 44.6 °F 93% 30.00 in 1.0 mi Calm Calm - N/A   Mist
10:35 PM 48.2 °F 46.4 °F 93% 30.01 in 5.0 mi Calm Calm - N/A   Clear
10:55 PM 46.4 °F 44.6 °F 93% 30.01 in 4.0 mi Calm Calm - N/A   Clear
11:15 PM 46.4 °F 44.6 °F 93% 30.01 in 5.0 mi Calm Calm - N/A   Clear
11:35 PM 46.4 °F 42.8 °F 87% 30.00 in 3.0 mi Calm Calm - N/A   Clear
11:55 PM 46.4 °F 44.6 °F 93% 30.00 in 3.0 mi Calm Calm - N/A   Clear